{"data":{"norad_id":55381,"epoch":"2026-05-24T13:27:16.566624Z","epoch_age_seconds":120188,"freshness":"FRESH","line1":"1 55381U 23013BC  26144.56060841  .00001907  00000+0  78824-4 0  9997","line2":"2 55381  43.0024 249.8852 0001465 277.3672  82.7013 15.27579261183104","mean_motion":15.27579261,"eccentricity":0.0001465,"inclination_deg":43.0024,"raan_deg":249.8852,"arg_perigee_deg":277.3672,"mean_anomaly_deg":82.7013,"bstar":7.8824e-5,"rev_number":18310,"period_min":94.266794317261,"perigee_km":482.04614478515,"apogee_km":484.05647295965,"semimajor_km":6861.1883088724,"source":"CELESTRAK","updated_at":"2026-05-25T13:38:17.770476Z"}}